Regional Weather Roundup
Issued by NWS Charleston, WV

Home | Current Version | Previous Version | Text Only | Print | Product List | Glossary On
Versions: 1 2 3 4 5 6 7 8 9 10 11 12 13 14 15 16 17 18 19 20 21 22 23 24 25 26 27 28 29 30 31 32 33 34 35 36 37 38 39 40 41 42 43 44 45 46 47 48 49 50
000
ASUS41 KRLX 061210
RWRRLX
West Virginia Regional Weather Roundup
National Weather Service Charleston WV
800 AM EDT MON JUL 06 2015

Note: "fair" indicates few or no clouds below 12,000 feet with no
significant weather and/or obstructions to visibility.

WVZ003-061300-
Northern Panhandle of West Virginia

CITY           SKY/WX    TMP DP  RH WIND       PRES   REMARKS
WHEELING       CLOUDY    70  66  87 CALM      30.10R
$$

WVZ009-061300-
Northwest West Virginia

CITY           SKY/WX    TMP DP  RH WIND       PRES   REMARKS
PARKERSBURG    PTSUNNY   70  67  90 CALM      30.11R
$$

WVZ006-061300-
Western West Virginia

CITY           SKY/WX    TMP DP  RH WIND       PRES   REMARKS
HUNTINGTON     CLOUDY    66  66 100 SW5       30.09R FOG
$$

WVZ015-061300-
West Central West Virginia

CITY           SKY/WX    TMP DP  RH WIND       PRES   REMARKS
CHARLESTON     CLOUDY    65  64  97 CALM      30.10R FOG
$$

WVZ022-031-061300-
North Central West Virginia

CITY           SKY/WX    TMP DP  RH WIND       PRES   REMARKS
CLARKSBURG     CLOUDY    70  68  93 CALM      30.09R
MORGANTOWN     PTSUNNY   74  65  73 SE3       30.10R
$$

WVZ025-035-042-045-061300-
Southern West Virginia

CITY           SKY/WX    TMP DP  RH WIND       PRES   REMARKS
BECKLEY        CLOUDY    66  63  90 S3        30.16R
LOGAN          CLOUDY    66  66 100 CALM      30.10R
BLUEFIELD      LGT RAIN  66  63  90 SW5       30.19R
LEWISBURG      CLOUDY    68  66  93 CALM      30.16R FOG
$$

WVZ047-061300-
Northern Mountains of West Virginia

CITY           SKY/WX    TMP DP  RH WIND       PRES   REMARKS
ELKINS         RAIN      66  64  93 S3        30.15R FOG
$$

WVZ052-061300-
Eastern Panhandle of West Virginia

CITY           SKY/WX    TMP DP  RH WIND       PRES   REMARKS
MARTINSBURG    CLOUDY    73  70  90 CALM      30.13R FOG
PETERSBURG     CLOUDY    71  69  92 CALM      30.13R FOG
$$


USA.gov is the U.S. government's official web portal to all federal, state and local government web resources and services.